Regional Weather Roundup
Issued by NWS

Home | Current Version | Previous Version | Graphics & Text | Print | Product List | Glossary Off
Versions: 1 2 3 4 5 6 7 8 9 10 11 12 13 14 15 16 17 18 19 20 21 22 23 24 25 26 27 28 29 30 31 32 33 34 35 36 37 38 39 40 41 42 43 44 45 46 47 48 49 50

000
ASUS43 KDMX 180706
RWRIA

WEATHER ROUNDUP FOR IOWA
NATIONAL WEATHER SERVICE DES MOINES IA
100 AM CST MON DEC 18 2017

NOTE: "FAIR" INDICATES FEW OR NO CLOUDS BELOW 12,000 FEET WITH NO
SIGNIFICANT WEATHER AND/OR OBSTRUCTIONS TO VISIBILITY.

* - THESE STATIONS ARE NOT NWS STATIONS...THUS NOT UNDER NWS
QUALITY CONTROL.  THEY ALSO DO NOT REPORT WEATHER SUCH
AS PRECIPITATION OR FOG.

IAZ001>003-012>014-020>022-031>034-043>046-180800-
   NORTHWEST IOWA

CITY           SKY/WX    TMP DP  RH WIND       PRES   REMARKS
CARROLL *        N/A     25  23  93 W3        29.95S
CHEROKEE *     CLEAR     22  22 100 SW5       29.94F FOG     WCI  16
DENISON *      MOCLDY    23  23 100 SW3       29.97S FOG
LE MARS *      PTCLDY    21  21 100 CALM      29.94F FOG
ORANGE CITY *  CLOUDY    28  28 100 SW5       29.92F WCI  23
SHELDON *      CLOUDY    27  27 100 SW6       29.90F WCI  20
SIOUX CITY     CLOUDY    17  16  95 S3        29.96S
SPENCER        CLOUDY    25  23  92 W3        29.92F FOG
STORM LAKE *   CLEAR     23  21  93 W7        29.92F FOG     WCI  15
$$

IAZ055>058-069>071-079>083-090>094-180800-
   SOUTHWEST IOWA

CITY           SKY/WX    TMP DP  RH WIND       PRES   REMARKS
ATLANTIC *     PTCLDY    23  23 100 SW3       29.97F FOG
CLARINDA *     CLOUDY    32  32 100 SW6         N/A  FOG     WCI  26
COUNCIL BLFS * CLOUDY    28  28 100 SW7       29.97S WCI  21
CRESTON *      FOG       30  30 100 W7        29.97F VSB 1/2 WCI  23
HARLAN  *      CLEAR     21  21 100 CALM      30.00S
LAMONI         CLOUDY    35  34  96 W7        29.98S FOG     WCI  29
RED OAK *      FOG       28  28 100 CALM      29.99S VSB<1/4
SHENANDOAH *   FOG       28  28 100 SW3       30.01R VSB 1/2
$$

IAZ047>049-059>061-072>074-084-180800-
   CENTRAL IOWA

CITY           SKY/WX    TMP DP  RH WIND       PRES   REMARKS
AMES           PTCLDY    25  24  96 W6        29.96F FOG     WCI  18
ANKENY *       CLOUDY    27  27 100 CALM      29.97F FOG
BOONE *        PTCLDY    25  25 100 SW5       29.94F FOG     WCI  19
CHARITON *     CLOUDY    34  32  93 W8        29.97S WCI  27
DES MOINES     MOCLDY    28  25  88 SW5       29.96F FOG     WCI  23
GRINNELL*      PTCLDY    32  29  91 SW7       29.95F WCI  25
KNOXVILLE *    CLOUDY    34  32  93 W9        29.96S WCI  26
MARSHALLTOWN   CLOUDY    27  26  96 CALM      29.94F FOG
NEWTON *       PTCLDY    30  28  93 W5        29.95F FOG     WCI  25
PELLA *        CLOUDY    34  32  91 W6        29.98F WCI  29
PERRY *          N/A     23  22  93 W6        29.96F FOG     WCI  16
$$

IAZ004>006-015-016-023>025-035-036-180800-
   NORTH CENTRAL IOWA

CITY           SKY/WX    TMP DP  RH WIND       PRES   REMARKS
ALGONA *       CLOUDY    27  27 100 SW7       29.92S FOG     WCI  19
CLARION *      CLOUDY    27  27 100 SW3       29.93F FOG
ESTHERVILLE    CLOUDY    26  26 100 W6        29.90F FOG     WCI  19
FORT DODGE *   FOG       22  20  92 SW3       29.94S VSB 1/4
MASON CITY     CLOUDY    28  26  92 W6        29.93F FOG     WCI  22
FOREST CITY *  CLOUDY    30  28  93 W5        29.92F FOG     WCI  25
WEBSTER CITY * FOG       27  25  93 CALM      29.92F VSB 1
IOWA FALLS *   CLOUDY    31  28  89 W5        29.95S WCI  26
$$

IAZ007>011-017>019-026>030-037>042-050>054-066-180800-
   NORTHEAST IOWA

CITY           SKY/WX    TMP DP  RH WIND       PRES   REMARKS
CEDAR RAPIDS   CLOUDY    35  34  96 SW8       29.93F FOG     WCI  29
CLINTON *      FOG       37  36  96 SW3       29.95F VSB 1/4
DECORAH *      CLOUDY    30  30 100 CALM      29.90F FOG
DUBUQUE        FOG       33  33 100 SW6       29.93S VSB 1/4 WCI  28
MONTICELLO *   FOG       36  36 100 CALM      29.93F VSB 1/2
OELWEIN *      CLOUDY    30  30 100 W5        29.93S FOG     WCI  25
WATERLOO       CLOUDY    30  27  88 CALM      29.94F FOG
$$

IAZ064-065-067-068-078-180800-
   EAST CENTRAL IOWA

CITY           SKY/WX    TMP DP  RH WIND       PRES   REMARKS
DAVENPORT      FOG       38  38 100 SW5       29.96F VSB 1/4 WCI  34
IOWA CITY      CLOUDY    38  36  92 W10       29.98F FOG     WCI  31
MT. PLEASANT * CLOUDY    42  42 100 SW7       29.97F
MUSCATINE *    CLOUDY    41  41 100 W12       29.98S FOG
QUAD CITIES    CLOUDY    42  41  96 SW7       29.94F FOG
$$

IAZ062-063-075>077-085>089-095>099-180800-
   SOUTHEAST IOWA

CITY           SKY/WX    TMP DP  RH WIND       PRES   REMARKS
BURLINGTON     CLOUDY    44  44 100 W8        29.97F
FAIRFIELD *    FOG       39  39 100 W5        29.96F VSB 1/4
FORT MADISON * CLOUDY    45  45 100 W8        29.98F
KEOKUK *       CLOUDY    45  43  93 SW8       29.98S
OSKALOOSA *    CLOUDY    35  35  97 W8        29.97F FOG     WCI  29
OTTUMWA        FOG       38  38 100 W5        29.96F VSB 1   WCI  34
WASHINGTON *   FOG       39  39 100 W8        29.97F VSB 1/2 WCI  34
$$

ABBREVIATIONS USED IN REMARKS
   TC - TEMPERATURES IN CELSIUS
  WCI - WIND CHILL INDEX
   HX - HEAT INDEX
  VSB - VISIBILITY
$$





USA.gov is the U.S. government's official web portal to all federal, state and local government web resources and services.